Time,TemperatureF,DewpointF,PressureIn,WindDirection,WindDirectionDegrees,WindSpeedMPH,WindSpeedGustMPH,Humidity,HourlyPrecipIn,Conditions,Clouds,dailyrainin,SoftwareType,DateUTC
2013-05-23 00:02:00,46.9,40.0,29.88,SSE,165,0.0,1.0,77,0.00,,,0.00,weatherlink.com 1.10,2013-05-23 07:02:00,
2013-05-23 00:17:00,46.9,40.0,29.88,SE,139,0.0,1.0,78,0.00,,,0.00,weatherlink.com 1.10,2013-05-23 07:17:00,
2013-05-23 00:32:00,46.2,40.0,29.89,SE,142,0.0,0.0,78,0.00,,,0.00,weatherlink.com 1.10,2013-05-23 07:32:00,
2013-05-23 00:47:00,45.5,40.0,29.89,NNE,28,0.0,1.0,82,0.00,,,0.00,weatherlink.com 1.10,2013-05-23 07:47:00,
2013-05-23 01:02:00,45.9,40.0,29.89,SSE,147,0.0,1.0,80,0.00,,,0.00,weatherlink.com 1.10,2013-05-23 08:02:00,
2013-05-23 01:17:00,44.8,40.0,29.89,SSE,147,0.0,0.0,82,0.00,,,0.00,weatherlink.com 1.10,2013-05-23 08:17:00,
2013-05-23 01:32:00,44.9,40.0,29.89,SE,139,0.0,0.0,84,0.00,,,0.00,weatherlink.com 1.10,2013-05-23 08:32:00,
2013-05-23 01:47:00,44.8,40.0,29.89,SE,141,0.0,0.0,83,0.00,,,0.00,weatherlink.com 1.10,2013-05-23 08:47:00,
2013-05-23 02:02:00,44.2,40.0,29.88,SE,141,0.0,1.0,84,0.00,,,0.00,weatherlink.com 1.10,2013-05-23 09:02:00,
2013-05-23 02:17:00,43.8,40.0,29.88,SE,141,0.0,0.0,86,0.00,,,0.00,weatherlink.com 1.10,2013-05-23 09:17:00,
2013-05-23 02:32:00,43.6,40.0,29.88,SE,141,0.0,1.0,86,0.00,,,0.00,weatherlink.com 1.10,2013-05-23 09:32:00,
2013-05-23 02:47:00,43.8,40.0,29.87,SE,141,0.0,0.0,86,0.00,,,0.00,weatherlink.com 1.10,2013-05-23 09:47:00,
2013-05-23 03:02:00,43.7,40.0,29.88,WSW,243,0.0,0.0,86,0.00,,,0.00,weatherlink.com 1.10,2013-05-23 10:02:00,
2013-05-23 03:17:00,44.4,40.0,29.87,SE,130,0.0,1.0,85,0.00,,,0.00,weatherlink.com 1.10,2013-05-23 10:17:00,
2013-05-23 03:32:00,44.3,40.0,29.87,SW,224,0.0,1.0,85,0.00,,,0.00,weatherlink.com 1.10,2013-05-23 10:32:00,
2013-05-23 03:47:00,44.9,40.0,29.88,NE,46,0.0,2.0,84,0.00,,,0.00,weatherlink.com 1.10,2013-05-23 10:47:00,
2013-05-23 04:02:00,45.2,40.0,29.88,NE,47,0.0,2.0,83,0.00,,,0.00,weatherlink.com 1.10,2013-05-23 11:02:00,
2013-05-23 04:17:00,44.9,40.0,29.88,South,178,0.0,2.0,84,0.00,,,0.00,weatherlink.com 1.10,2013-05-23 11:17:00,
2013-05-23 04:32:00,44.7,41.0,29.88,ENE,70,0.0,2.0,85,0.00,,,0.00,weatherlink.com 1.10,2013-05-23 11:32:00,
2013-05-23 04:47:00,44.8,40.0,29.88,SSE,167,0.0,0.0,84,0.00,,,0.00,weatherlink.com 1.10,2013-05-23 11:47:00,
2013-05-23 05:02:00,43.9,40.0,29.88,South,169,0.0,0.0,85,0.00,,,0.00,weatherlink.com 1.10,2013-05-23 12:02:00,
2013-05-23 05:17:00,43.0,39.0,29.89,SW,230,0.0,0.0,86,0.00,,,0.00,weatherlink.com 1.10,2013-05-23 12:17:00,
2013-05-23 05:32:00,42.3,39.0,29.89,SW,230,0.0,0.0,87,0.00,,,0.00,weatherlink.com 1.10,2013-05-23 12:32:00,
2013-05-23 05:47:00,41.1,38.0,29.89,SW,230,0.0,0.0,88,0.00,,,0.00,weatherlink.com 1.10,2013-05-23 12:47:00,
2013-05-23 06:03:00,40.1,38.0,29.89,SW,230,0.0,0.0,90,0.00,,,0.00,weatherlink.com 1.10,2013-05-23 13:03:00,
2013-05-23 06:18:00,39.9,38.0,29.90,SW,229,0.0,0.0,91,0.00,,,0.00,weatherlink.com 1.10,2013-05-23 13:18:00,
2013-05-23 06:33:00,40.6,39.0,29.90,South,180,0.0,0.0,93,0.00,,,0.00,weatherlink.com 1.10,2013-05-23 13:33:00,
2013-05-23 06:48:00,42.5,40.0,29.90,South,180,0.0,0.0,91,0.00,,,0.00,weatherlink.com 1.10,2013-05-23 13:48:00,
2013-05-23 07:03:00,45.5,41.0,29.91,NE,41,0.0,1.0,83,0.00,,,0.00,weatherlink.com 1.10,2013-05-23 14:03:00,
2013-05-23 07:18:00,47.7,41.0,29.91,SSE,147,0.0,2.0,78,0.00,,,0.00,weatherlink.com 1.10,2013-05-23 14:18:00,
2013-05-23 07:33:00,49.3,41.0,29.91,SE,146,0.0,2.0,73,0.00,,,0.00,weatherlink.com 1.10,2013-05-23 14:33:00,
2013-05-23 07:48:00,50.9,40.0,29.91,North,3,3.0,4.0,67,0.00,,,0.00,weatherlink.com 1.10,2013-05-23 14:48:00,
2013-05-23 08:03:00,52.1,40.0,29.91,NE,55,2.0,6.0,63,0.00,,,0.00,weatherlink.com 1.10,2013-05-23 15:03:00,
2013-05-23 08:18:00,54.4,40.0,29.91,NNW,342,1.0,4.0,59,0.00,,,0.00,weatherlink.com 1.10,2013-05-23 15:18:00,
2013-05-23 08:33:00,55.4,40.0,29.91,ENE,76,2.0,5.0,57,0.00,,,0.00,weatherlink.com 1.10,2013-05-23 15:33:00,
2013-05-23 08:48:00,55.7,40.0,29.92,NE,46,2.0,7.0,55,0.00,,,0.00,weatherlink.com 1.10,2013-05-23 15:48:00,
2013-05-23 09:03:00,56.7,40.0,29.93,SE,129,0.0,6.0,54,0.00,,,0.00,weatherlink.com 1.10,2013-05-23 16:03:00,
2013-05-23 09:18:00,57.4,40.0,29.93,ENE,68,2.0,7.0,53,0.00,,,0.00,weatherlink.com 1.10,2013-05-23 16:18:00,
2013-05-23 09:33:00,57.6,40.0,29.93,North,10,3.0,7.0,53,0.00,,,0.00,weatherlink.com 1.10,2013-05-23 16:33:00,
2013-05-23 09:48:00,58.2,40.0,29.93,NE,51,0.0,8.0,52,0.00,,,0.00,weatherlink.com 1.10,2013-05-23 16:48:00,
2013-05-23 10:03:00,59.8,41.0,29.93,NE,49,0.0,6.0,50,0.00,,,0.00,weatherlink.com 1.10,2013-05-23 17:03:00,
2013-05-23 10:18:00,60.9,41.0,29.93,NE,40,0.0,4.0,48,0.00,,,0.00,weatherlink.com 1.10,2013-05-23 17:18:00,
2013-05-23 10:33:00,61.8,41.0,29.93,NNW,345,1.0,8.0,47,0.00,,,0.00,weatherlink.com 1.10,2013-05-23 17:33:00,
2013-05-23 10:48:00,62.8,41.0,29.93,ESE,122,1.0,5.0,45,0.00,,,0.00,weatherlink.com 1.10,2013-05-23 17:48:00,
2013-05-23 11:03:00,63.6,41.0,29.93,SE,145,1.0,6.0,44,0.00,,,0.00,weatherlink.com 1.10,2013-05-23 18:03:00,
2013-05-23 11:19:00,66.3,41.0,29.93,SSE,150,1.0,4.0,40,0.00,,,0.00,weatherlink.com 1.10,2013-05-23 18:19:00,
2013-05-23 11:34:00,66.5,41.0,29.94,SSE,148,0.0,5.0,39,0.00,,,0.00,weatherlink.com 1.10,2013-05-23 18:34:00,
2013-05-23 11:49:00,67.7,41.0,29.94,North,5,2.0,4.0,38,0.00,,,0.00,weatherlink.com 1.10,2013-05-23 18:49:00,
2013-05-23 12:04:00,69.9,42.0,29.94,NE,44,1.0,4.0,37,0.00,,,0.00,weatherlink.com 1.10,2013-05-23 19:04:00,
2013-05-23 12:19:00,70.1,43.0,29.94,NE,34,4.0,5.0,37,0.00,,,0.00,weatherlink.com 1.10,2013-05-23 19:19:00,
2013-05-23 12:34:00,70.1,44.0,29.94,NNE,14,1.0,7.0,39,0.00,,,0.00,weatherlink.com 1.10,2013-05-23 19:34:00,
2013-05-23 12:49:00,70.6,44.0,29.94,NE,46,3.0,6.0,39,0.00,,,0.00,weatherlink.com 1.10,2013-05-23 19:49:00,
2013-05-23 13:04:00,69.7,44.0,29.94,NE,53,3.0,7.0,40,0.00,,,0.00,weatherlink.com 1.10,2013-05-23 20:04:00,
2013-05-23 13:19:00,69.6,43.0,29.94,ESE,108,4.0,9.0,39,0.00,,,0.00,weatherlink.com 1.10,2013-05-23 20:19:00,
2013-05-23 13:34:00,69.9,44.0,29.94,South,179,0.0,10.0,39,0.00,,,0.00,weatherlink.com 1.10,2013-05-23 20:34:00,
2013-05-23 13:49:00,71.2,45.0,29.94,NNW,339,2.0,6.0,39,0.00,,,0.00,weatherlink.com 1.10,2013-05-23 20:49:00,
2013-05-23 14:04:00,69.0,44.0,29.95,NE,56,1.0,13.0,40,0.00,,,0.00,weatherlink.com 1.10,2013-05-23 21:04:00,
2013-05-23 14:19:00,68.7,43.0,29.95,ENE,58,6.0,10.0,40,0.00,,,0.00,weatherlink.com 1.10,2013-05-23 21:19:00,
2013-05-23 14:34:00,68.3,44.0,29.94,NNE,18,4.0,13.0,41,0.00,,,0.00,weatherlink.com 1.10,2013-05-23 21:34:00,
2013-05-23 14:50:00,67.5,43.0,29.95,NE,54,3.0,10.0,42,0.00,,,0.00,weatherlink.com 1.10,2013-05-23 21:50:00,
2013-05-23 15:04:00,67.5,43.0,29.94,NE,35,6.0,12.0,42,0.00,,,0.00,weatherlink.com 1.10,2013-05-23 22:04:00,
2013-05-23 15:19:00,67.7,42.0,29.95,NE,56,3.0,8.0,40,0.00,,,0.00,weatherlink.com 1.10,2013-05-23 22:19:00,
2013-05-23 15:34:00,68.9,42.0,29.94,East,99,2.0,4.0,38,0.00,,,0.00,weatherlink.com 1.10,2013-05-23 22:34:00,
2013-05-23 15:49:00,69.4,42.0,29.94,ENE,65,2.0,5.0,37,0.00,,,0.00,weatherlink.com 1.10,2013-05-23 22:49:00,
2013-05-23 16:04:00,68.5,42.0,29.94,SE,129,1.0,10.0,38,0.00,,,0.00,weatherlink.com 1.10,2013-05-23 23:04:00,
2013-05-23 16:19:00,68.8,41.0,29.93,ENE,73,1.0,11.0,37,0.00,,,0.00,weatherlink.com 1.10,2013-05-23 23:19:00,
2013-05-23 16:34:00,69.3,42.0,29.93,North,4,2.0,6.0,37,0.00,,,0.00,weatherlink.com 1.10,2013-05-23 23:34:00,
2013-05-23 16:49:00,69.1,43.0,29.93,ENE,69,0.0,5.0,39,0.00,,,0.00,weatherlink.com 1.10,2013-05-23 23:49:00,
2013-05-23 17:04:00,68.7,42.0,29.94,SSE,163,1.0,7.0,38,0.00,,,0.00,weatherlink.com 1.10,2013-05-24 00:04:00,
2013-05-23 17:20:00,67.3,42.0,29.93,NE,34,2.0,9.0,40,0.00,,,0.00,weatherlink.com 1.10,2013-05-24 00:20:00,
2013-05-23 17:34:00,65.6,42.0,29.94,NE,43,2.0,11.0,42,0.00,,,0.00,weatherlink.com 1.10,2013-05-24 00:34:00,
2013-05-23 17:49:00,64.1,43.0,29.94,North,1,1.0,9.0,47,0.00,,,0.00,weatherlink.com 1.10,2013-05-24 00:49:00,
2013-05-23 18:04:00,63.2,44.0,29.94,NE,55,4.0,8.0,49,0.00,,,0.00,weatherlink.com 1.10,2013-05-24 01:04:00,
2013-05-23 18:19:00,61.7,44.0,29.94,NE,41,0.0,9.0,53,0.00,,,0.00,weatherlink.com 1.10,2013-05-24 01:19:00,
2013-05-23 18:34:00,60.7,44.0,29.93,NE,52,0.0,6.0,55,0.00,,,0.00,weatherlink.com 1.10,2013-05-24 01:34:00,
2013-05-23 18:49:00,60.2,44.0,29.93,NNE,27,2.0,7.0,56,0.00,,,0.00,weatherlink.com 1.10,2013-05-24 01:49:00,
2013-05-23 19:04:00,59.7,44.0,29.94,East,82,0.0,8.0,56,0.00,,,0.00,weatherlink.com 1.10,2013-05-24 02:04:00,
2013-05-23 19:19:00,58.5,44.0,29.94,NE,56,4.0,10.0,58,0.00,,,0.00,weatherlink.com 1.10,2013-05-24 02:19:00,
2013-05-23 19:34:00,57.6,44.0,29.94,ENE,65,2.0,7.0,61,0.00,,,0.00,weatherlink.com 1.10,2013-05-24 02:34:00,
2013-05-23 19:49:00,57.2,43.0,29.93,NE,51,0.0,3.0,60,0.00,,,0.00,weatherlink.com 1.10,2013-05-24 02:49:00,
2013-05-23 20:04:00,56.5,43.0,29.93,SE,130,0.0,4.0,61,0.00,,,0.00,weatherlink.com 1.10,2013-05-24 03:04:00,
2013-05-23 20:19:00,55.7,43.0,29.93,ESE,107,0.0,2.0,62,0.00,,,0.00,weatherlink.com 1.10,2013-05-24 03:19:00,
2013-05-23 20:34:00,54.8,43.0,29.94,East,82,0.0,3.0,64,0.00,,,0.00,weatherlink.com 1.10,2013-05-24 03:34:00,
2013-05-23 20:49:00,54.5,42.0,29.93,NE,44,2.0,5.0,64,0.00,,,0.00,weatherlink.com 1.10,2013-05-24 03:49:00,
2013-05-23 21:04:00,54.3,42.0,29.94,ESE,123,0.0,3.0,64,0.00,,,0.00,weatherlink.com 1.10,2013-05-24 04:04:00,
2013-05-23 21:19:00,53.7,42.0,29.94,NNW,328,0.0,2.0,65,0.00,,,0.00,weatherlink.com 1.10,2013-05-24 04:19:00,
2013-05-23 21:34:00,53.4,42.0,29.95,SE,136,2.0,2.0,66,0.00,,,0.00,weatherlink.com 1.10,2013-05-24 04:34:00,
2013-05-23 21:49:00,53.5,42.0,29.95,SSE,149,0.0,3.0,66,0.00,,,0.00,weatherlink.com 1.10,2013-05-24 04:49:00,
2013-05-23 22:04:00,53.7,42.0,29.96,East,88,0.0,3.0,66,0.00,,,0.00,weatherlink.com 1.10,2013-05-24 05:04:00,
2013-05-23 22:19:00,53.0,43.0,29.96,ESE,122,0.0,3.0,68,0.00,,,0.00,weatherlink.com 1.10,2013-05-24 05:19:00,
2013-05-23 22:34:00,52.6,43.0,29.96,NE,51,0.0,2.0,69,0.00,,,0.00,weatherlink.com 1.10,2013-05-24 05:34:00,
2013-05-23 22:49:00,52.4,43.0,29.96,NE,39,1.0,4.0,70,0.00,,,0.00,weatherlink.com 1.10,2013-05-24 05:49:00,
2013-05-23 23:04:00,52.0,43.0,29.96,SE,134,0.0,4.0,71,0.00,,,0.00,weatherlink.com 1.10,2013-05-24 06:04:00,
2013-05-23 23:19:00,51.7,43.0,29.95,NE,39,0.0,2.0,71,0.00,,,0.00,weatherlink.com 1.10,2013-05-24 06:19:00,
2013-05-23 23:34:00,51.4,43.0,29.95,East,85,0.0,3.0,72,0.00,,,0.00,weatherlink.com 1.10,2013-05-24 06:34:00,
2013-05-23 23:49:00,51.7,43.0,29.95,ENE,77,0.0,3.0,71,0.00,,,0.00,weatherlink.com 1.10,2013-05-24 06:49:00,